Home > Weather > Leipzig > Past weeks

Flag for Germany Past Weather in Leipzig, Saxony, Germany — Yesterday and Last 2 Weeks

Now
68 °F

Clear.


Feels Like: 68 °F
Forecast: 62 / 85 °F
Wind: 8 mph from Southeast

Location: Leipzig-Schkeuditz

Current Time: Jul 25, 2016 at 12:22:53 AM

Latest Report: Jul 24, 2016 at 11:50 PM


Visibility: 10 mi

Pressure: 30.07 "Hg

Humidity: 83%

Dew Point: 63 °F

Location of LeipzigLocation

Past Weather in Leipzig — Graph

°F

Leipzig Temperature Yesterday

Maximum temperature yesterday: 84 °F (at 2:20 PM)
Minimum temperature yesterday: 66 °F (at 3:50 AM)
Average temperature yesterday: 75 °F

High & Low Weather Summary for the Past Weeks

 TemperatureHumidityPressure
High88 °F (Jul 22, 3:20 PM)100% (Jul 14, 7:20 AM)30.27 "Hg (Jul 14, 7:20 AM)
Low48 °F (Jul 16, 5:50 AM)25% (Jul 23, 1:50 PM)29.77 "Hg (Jul 11, 1:20 AM)
Average70 °F64%30.02 "Hg
* Reported Jul 9 11:20 PM — Jul 24 11:20 PM, Leipzig, Weather by CustomWeather, © 2016

Note: Actual official high and low records may vary slightly from our data, if they occured in-between our weather recording intervals... More about our weather records

Advertising

Leipzig Weather History for the Previous 24 Hours

Scroll right to see more
 ConditionsComfort  
Time TempWeatherWind HumidityBarometerVisibility
11:20 PM
Sun, Jul 24
68 °FClear.8 mph78%30.07 "Hg10 mi
10:50 PM70 °FClear.7 mph73%30.07 "Hg10 mi
10:20 PM70 °FClear.7 mph73%30.07 "Hg10 mi
9:50 PM73 °FSunny.7 mph65%30.07 "Hg10 mi
9:20 PM73 °FPassing clouds.8 mph65%30.04 "HgN/A
8:50 PM77 °FSunny.7 mph57%30.04 "Hg10 mi
8:20 PM77 °FSunny.6 mph57%30.04 "Hg10 mi
7:50 PM79 °FSunny.9 mph54%30.04 "Hg10 mi
7:20 PM81 °FSunny.12 mph51%30.04 "Hg10 mi
6:50 PM82 °FPassing clouds.9 mph45%30.04 "HgN/A
6:20 PM84 °FPassing clouds.7 mph37%30.04 "HgN/A
5:50 PM84 °FPassing clouds.7 mph37%30.04 "HgN/A
5:20 PM84 °FPassing clouds.8 mph35%30.04 "HgN/A
4:50 PM82 °FPassing clouds.8 mph40%30.04 "HgN/A
4:20 PM84 °FSunny.6 mph37%30.04 "Hg10 mi
3:50 PM84 °FPassing clouds.8 mph37%30.04 "HgN/A
3:20 PM82 °FPassing clouds.8 mph37%30.07 "HgN/A
2:50 PM84 °FPassing clouds.7 mph37%30.07 "HgN/A
2:20 PM84 °FPassing clouds.6 mph37%30.07 "HgN/A
1:50 PM82 °FScattered clouds.7 mph40%30.07 "HgN/A
1:20 PM81 °FScattered clouds.9 mph45%30.07 "HgN/A
12:50 PM79 °FScattered clouds.6 mph48%30.07 "HgN/A
12:20 PM81 °FScattered clouds.6 mph48%30.07 "HgN/A
11:50 AM77 °FScattered clouds.7 mph54%30.09 "HgN/A
11:20 AM79 °FScattered clouds.6 mph54%30.09 "HgN/A
10:50 AM79 °FScattered clouds.6 mph54%30.09 "HgN/A
10:20 AM77 °FScattered clouds.3 mph57%30.09 "HgN/A
9:50 AM75 °FPassing clouds.5 mph65%30.09 "HgN/A
9:20 AM73 °FScattered clouds.5 mph69%30.09 "HgN/A
8:50 AM73 °FPassing clouds.3 mph74%30.09 "HgN/A
8:20 AM70 °FPassing clouds.6 mph78%30.09 "HgN/A
7:50 AM68 °FSunny.6 mph83%30.09 "Hg10 mi
7:20 AM68 °FSunny.5 mph83%30.09 "Hg10 mi
6:50 AM66 °FPassing clouds.5 mph83%30.09 "HgN/A
6:20 AM66 °FClear.6 mph88%30.09 "Hg10 mi
5:50 AM66 °FClear.6 mph83%30.09 "Hg10 mi
5:20 AM66 °FPassing clouds.6 mph83%30.07 "HgN/A
4:50 AM66 °FClear.6 mph83%30.07 "Hg10 mi
4:20 AM68 °FClear.6 mph78%30.07 "Hg10 mi
3:50 AM66 °FClear.5 mph83%30.07 "Hg10 mi
3:20 AM68 °FClear.6 mph78%30.07 "Hg10 mi
2:50 AM68 °FClear.5 mph78%30.09 "Hg10 mi
2:20 AM68 °FClear.3 mph78%30.07 "Hg10 mi
1:50 AM70 °FClear.6 mph73%30.07 "Hg10 mi
1:20 AM70 °FClear.7 mph73%30.07 "Hg10 mi
12:50 AM70 °FClear.5 mph73%30.07 "Hg10 mi
12:20 AM70 °FClear.3 mph73%30.07 "Hg10 mi
Weather by CustomWeather, © 2016

See weather overviewHow to use our weather pages